Theta_e
309 310 311 313 314 313 310 307 306 306 306 306 306 306 306 306 307 307 307 307 307 307 307 307 308 308 308 309 309 310 311 311 315 321 323 319 314 314 313 312 312 312 314 316 316 316 315 316 316 315 317 319 320 323 322 323 323 324 327 322 318 319 317 318 320 320 320 319 318 317 317 318 317 317 316 315 316 316 315 314 313 313 312 312 312 312 312 313
309 307 308 311 313 313 311 306 305 307 306 306 306 306 306 306 306 306 307 307 307 307 307 307 308 308 309 309 310 311 311 314 318 322 320 317 314 313 313 313 313 313 315 317 316 316 315 315 316 315 317 319 320 321 323 323 322 323 326 321 318 319 318 319 319 318 320 319 318 317 317 316 317 317 315 315 316 316 315 314 315 314 313 312 312 313 313 313
311 309 308 309 311 311 308 305 305 306 306 306 307 306 306 306 307 307 307 307 307 308 307 308 308 308 310 310 312 311 314 320 322 322 317 314 314 313 313 313 314 314 315 315 315 315 315 315 315 315 316 317 318 319 321 321 321 321 322 322 319 318 317 317 318 317 318 318 318 317 316 315 316 316 315 316 316 316 316 315 315 315 313 312 312 312 313 313
311 311 311 311 311 311 310 308 307 306 306 307 307 307 307 307 308 307 307 308 308 308 308 308 308 310 310 311 313 312 319 325 322 320 316 314 314 313 313 314 314 314 315 315 315 315 315 315 315 315 316 317 317 317 319 319 321 320 320 320 318 317 317 316 317 317 317 317 317 317 315 315 316 315 315 315 316 317 315 314 314 314 312 312 311 312 312 313
310 311 312 312 311 312 311 311 310 309 308 307 307 307 308 308 308 308 307 308 308 309 308 309 310 311 311 313 313 314 323 324 317 318 316 314 314 313 314 313 314 315 315 315 315 316 315 316 316 316 316 317 318 317 317 317 319 320 319 319 318 317 317 316 317 317 316 315 316 316 315 316 316 315 316 316 317 317 314 312 312 312 311 311 311 312 312 312
310 310 311 311 311 311 310 311 311 311 309 307 307 307 307 308 308 308 308 308 308 310 310 310 311 311 312 314 312 316 323 319 315 318 314 314 314 313 314 313 314 315 315 315 316 316 316 316 315 317 316 315 318 317 317 317 318 319 319 318 317 317 317 317 317 316 316 315 315 316 315 315 316 315 316 317 317 314 311 311 310 310 310 310 311 311 311 311
310 309 311 310 309 310 310 310 310 310 310 308 307 307 307 307 308 308 310 309 310 311 311 312 312 313 313 314 317 320 322 318 317 317 314 315 315 314 314 313 314 315 315 316 317 317 316 315 315 316 317 316 317 317 317 317 317 319 319 318 317 317 317 317 317 316 315 315 316 315 315 315 315 316 315 316 314 311 310 310 310 309 310 310 310 310 310 311
311 310 310 310 308 308 309 309 308 308 308 308 307 307 306 307 308 309 311 311 311 312 312 313 313 314 314 314 321 323 322 320 317 314 314 315 314 314 313 314 314 315 316 317 316 317 315 316 316 316 317 317 317 317 316 316 318 319 318 318 317 316 317 317 316 316 315 315 316 316 315 315 316 315 315 314 311 310 310 309 309 309 310 310 310 310 310 310
309 309 310 311 310 308 308 309 310 310 308 307 307 307 307 307 307 309 311 312 312 312 313 314 314 314 313 315 321 319 319 321 317 315 315 314 315 314 314 316 315 315 317 317 316 316 316 316 317 316 317 317 317 317 317 317 318 317 317 317 317 317 316 316 316 316 316 315 316 315 315 316 315 315 315 313 311 310 309 309 310 310 310 309 309 309 309 309
308 308 309 310 311 310 309 310 311 311 310 310 309 307 308 307 307 309 311 313 313 313 314 314 315 314 315 320 321 317 319 320 317 318 317 315 317 315 315 317 316 316 317 317 317 316 316 317 317 317 318 318 317 317 317 317 317 316 316 317 316 317 317 317 316 316 316 316 315 315 316 316 314 315 315 312 310 310 310 310 310 310 310 309 309 309 309 308
309 308 309 310 310 310 311 311 311 311 311 310 309 308 308 308 308 309 311 313 313 314 314 314 314 313 317 320 317 318 321 320 319 320 318 317 317 315 316 316 315 317 317 317 317 316 316 316 316 316 318 317 316 317 316 315 315 316 316 316 317 317 317 317 317 317 317 316 316 315 315 315 313 314 315 312 310 310 310 310 310 310 310 309 309 309 308 308
313 311 310 310 311 310 311 313 312 312 312 310 308 307 308 309 309 310 312 313 313 314 314 314 314 314 318 318 315 319 321 320 320 320 319 318 317 316 316 315 316 317 317 318 318 316 315 316 315 316 317 317 317 318 316 314 315 316 316 316 318 318 318 318 317 318 317 316 315 315 316 316 314 314 313 311 310 311 311 311 311 311 310 310 309 308 308 307
314 313 311 310 311 311 312 313 313 314 312 311 309 308 309 310 311 312 313 314 314 314 314 315 314 314 319 318 316 318 318 319 321 320 319 319 318 317 317 316 316 316 316 317 318 316 314 315 316 316 317 318 318 317 315 315 315 316 316 317 318 319 319 319 317 317 316 315 315 315 317 319 315 313 311 310 310 311 312 311 311 310 310 310 309 309 308 307
314 313 311 310 311 311 313 315 315 314 312 312 312 310 309 310 312 313 314 315 315 315 315 315 314 316 319 317 316 317 316 318 319 319 319 318 317 316 316 315 315 315 315 316 316 314 313 315 316 316 316 316 316 315 315 316 316 316 318 318 319 320 319 318 317 315 315 314 314 315 317 319 316 313 311 310 311 311 312 312 311 311 309 309 310 309 308 306
314 313 312 311 311 311 313 315 315 314 313 313 313 311 310 311 313 315 315 315 315 315 315 314 315 318 319 316 316 315 314 316 317 318 318 318 317 316 315 315 315 315 314 315 315 313 314 315 316 317 316 315 315 316 318 319 318 317 319 321 321 321 319 317 316 316 316 314 313 315 317 318 316 313 311 310 311 312 312 312 311 311 309 309 309 309 308 306
314 313 313 312 311 311 313 314 314 314 314 313 312 312 311 313 315 316 315 315 315 315 316 318 316 316 317 316 317 316 316 317 318 318 317 318 319 317 316 315 314 315 314 315 314 314 315 315 317 318 316 315 317 318 319 320 320 320 320 321 322 321 320 318 316 316 316 314 313 315 317 318 316 314 312 311 311 312 313 313 311 311 309 309 309 309 309 307
315 314 313 313 311 312 313 314 315 315 314 313 312 312 313 315 316 316 315 314 314 314 317 320 317 315 316 315 316 318 319 318 319 318 316 318 318 316 315 315 315 315 315 315 315 315 315 316 317 318 317 317 318 319 321 322 323 322 322 321 322 322 320 318 317 317 317 316 314 315 315 317 317 315 312 311 311 312 313 314 312 311 310 309 309 309 309 308
315 315 314 313 312 312 314 315 315 315 314 312 313 314 315 316 315 317 317 315 315 317 316 317 316 316 316 315 316 318 320 319 319 318 316 316 317 316 316 316 315 315 315 315 315 315 316 317 317 318 319 318 318 320 323 324 323 322 322 321 321 321 320 319 318 317 317 316 316 316 316 317 317 314 312 311 311 311 312 313 312 311 310 310 309 309 309 309
316 316 315 315 313 312 314 315 314 314 313 314 316 317 317 317 316 319 320 318 318 319 318 317 317 317 317 317 317 318 319 319 318 317 316 315 315 316 316 315 316 315 316 317 317 316 317 319 319 321 321 320 319 319 321 323 321 321 322 322 321 320 320 320 318 317 317 316 317 318 318 318 318 315 312 312 312 312 313 314 313 311 310 309 309 309 309 308
316 316 316 315 313 312 314 314 313 314 314 314 318 320 320 321 321 320 320 319 319 318 316 317 317 316 317 318 317 316 317 316 317 317 316 315 315 315 315 315 317 317 317 320 320 317 318 321 323 322 321 320 320 319 319 320 320 321 322 322 321 320 320 320 318 316 316 318 319 320 321 320 320 318 313 312 312 313 314 314 312 311 310 309 309 309 309 307
317 317 316 316 314 312 313 313 313 315 314 314 317 321 322 322 321 319 318 320 319 318 318 318 316 316 317 317 316 315 316 315 316 318 316 314 315 315 316 316 317 318 318 320 320 318 319 322 322 321 320 319 320 320 320 320 320 320 321 320 320 321 320 320 318 316 316 319 320 320 321 320 320 321 316 312 312 312 313 313 312 311 310 309 310 309 308 306
317 317 316 316 314 312 313 313 315 316 315 315 317 320 321 318 317 316 316 319 319 319 319 318 317 317 317 317 316 316 317 316 316 318 315 314 315 316 316 316 317 319 318 319 321 321 321 321 320 319 320 320 320 320 320 321 321 321 321 321 322 321 321 320 317 315 315 319 321 321 321 320 320 321 318 313 312 312 313 313 312 311 310 310 309 308 307 306
317 317 316 316 314 313 313 313 315 317 315 316 317 319 320 317 316 317 316 318 319 319 319 319 318 318 317 317 315 316 317 317 318 318 316 314 315 316 317 316 317 319 319 319 321 323 323 321 319 319 319 320 320 319 320 321 321 322 321 321 322 321 322 321 317 316 316 317 320 320 320 320 319 321 320 315 312 314 313 313 314 312 311 310 309 308 306 306
317 317 316 316 314 313 314 314 316 316 316 317 317 318 319 316 316 318 320 320 319 319 319 319 319 319 318 317 316 316 317 317 318 318 316 315 315 316 317 317 317 318 319 318 320 322 322 321 320 320 319 320 321 320 320 321 320 323 323 322 322 321 322 322 320 317 316 317 318 318 321 322 320 321 321 316 313 313 311 310 312 311 310 310 309 308 307 306
318 318 317 316 314 313 314 315 316 316 316 317 317 318 318 316 316 318 321 321 320 321 322 321 321 320 319 316 316 316 316 317 318 318 315 315 316 317 317 317 317 318 319 319 319 320 319 320 321 322 321 321 322 320 322 323 320 322 324 322 321 321 322 323 324 322 323 325 320 318 327 330 324 323 322 316 312 312 310 309 310 309 308 308 308 307 307 307
319 318 317 316 314 313 314 316 316 316 317 317 317 317 317 317 317 317 319 320 319 322 324 323 321 321 319 317 315 316 318 317 317 318 315 315 316 317 317 317 317 318 319 319 320 320 319 319 322 323 323 325 324 322 323 324 320 321 327 326 322 320 323 325 326 326 330 330 321 318 328 331 324 324 323 316 312 312 310 309 309 308 307 306 306 306 306 307
320 318 318 317 314 313 315 317 317 317 317 317 318 317 315 317 316 317 320 320 320 323 323 320 319 319 319 317 315 317 319 318 317 317 315 316 316 316 317 318 317 317 317 319 322 321 319 319 323 324 324 326 324 322 323 322 322 325 328 329 324 322 325 326 326 328 329 327 322 319 323 326 324 324 322 315 313 313 311 309 309 308 307 306 305 305 305 305
320 319 318 317 315 314 316 318 317 317 317 317 317 317 316 316 315 318 322 321 323 324 321 318 316 315 317 316 316 318 317 318 320 317 313 314 315 315 317 317 317 317 316 319 323 323 321 321 325 325 324 325 322 322 326 323 322 326 326 325 325 324 325 325 326 329 327 326 326 323 321 326 326 324 319 315 315 316 312 309 309 308 307 305 305 305 304 304
321 319 319 317 315 315 316 318 317 317 318 317 317 317 316 314 316 322 324 322 323 323 319 317 316 316 317 317 317 317 315 316 318 314 312 313 314 314 316 317 317 318 317 317 321 325 322 318 321 323 322 323 321 324 330 326 323 325 324 324 325 324 324 324 325 326 325 326 327 325 323 326 328 325 319 317 318 318 315 312 309 308 307 305 305 305 304 303
322 320 319 318 316 315 316 318 318 318 317 316 316 316 315 316 320 325 326 325 325 322 316 316 317 318 318 317 318 317 315 314 313 312 313 314 313 313 314 316 316 318 320 319 320 321 317 314 317 321 320 320 320 320 323 325 324 323 324 324 323 322 322 322 322 323 324 325 326 325 324 324 327 328 321 319 320 319 318 314 310 308 306 305 305 304 303 303
322 321 320 317 316 315 316 317 318 318 317 315 314 315 316 321 324 327 328 325 324 323 316 315 318 318 317 318 319 318 316 314 312 313 315 314 314 314 315 317 317 319 323 323 322 319 316 317 320 319 317 317 320 320 318 319 321 322 324 325 324 323 322 321 321 322 325 327 326 325 324 323 326 327 320 319 319 319 319 315 310 308 306 305 305 303 303 302
321 322 321 318 317 316 317 318 317 318 317 313 314 316 320 323 325 327 328 324 325 325 320 318 319 318 318 319 320 318 317 316 314 315 316 315 316 315 315 318 319 321 323 322 322 322 320 320 321 320 317 317 321 323 319 317 319 322 325 326 328 327 324 325 325 323 325 326 321 321 323 324 324 322 319 319 318 318 319 314 310 308 306 305 305 303 302 302
322 322 320 319 317 316 317 318 317 318 316 313 315 319 321 323 325 326 327 325 325 324 321 320 319 318 319 321 321 319 318 318 315 315 316 316 317 316 316 318 318 321 325 322 322 325 324 322 322 321 318 318 321 322 321 320 320 321 323 325 329 330 329 330 328 326 328 326 318 317 322 326 326 323 321 319 315 314 316 314 310 308 306 305 304 303 302 301
322 321 319 318 318 317 317 318 318 317 315 314 317 319 321 323 325 325 324 324 323 321 320 320 320 320 320 321 322 320 320 320 316 316 318 317 318 318 317 318 317 320 324 323 323 324 326 327 324 320 319 319 319 320 322 322 318 319 321 323 326 329 331 333 330 330 331 326 318 318 323 329 329 322 317 313 310 310 313 313 310 308 306 305 304 303 302 301
321 320 319 318 318 317 317 318 318 317 315 316 319 320 321 323 324 325 323 323 322 320 319 320 321 322 322 322 322 319 321 322 317 317 320 318 318 319 318 317 317 318 321 323 325 323 325 329 325 320 319 318 318 320 320 321 320 320 321 323 325 327 328 330 328 325 325 324 321 321 325 326 322 316 310 308 308 309 310 310 308 308 306 305 304 302 302 301
320 319 319 318 317 318 317 318 318 317 316 317 319 320 321 323 324 324 322 322 322 321 320 321 322 323 324 324 323 321 321 322 319 319 321 319 319 319 319 319 317 318 320 322 326 328 327 329 324 319 318 317 318 321 320 323 323 321 322 324 324 325 325 327 326 321 321 325 324 323 324 322 318 316 311 309 309 308 309 309 307 307 306 304 303 302 302 301
319 318 318 318 317 318 317 317 317 316 316 318 319 320 320 322 323 322 320 320 321 320 321 323 324 324 325 325 324 322 322 323 320 320 322 321 321 320 320 321 319 318 319 319 325 329 329 327 322 319 320 317 316 320 321 322 322 322 324 323 322 324 323 323 326 325 324 327 326 323 323 321 321 321 313 309 310 309 309 309 308 306 306 304 303 303 302 301
318 318 318 318 318 317 317 318 317 316 317 318 318 319 320 321 321 320 320 320 320 320 321 322 323 324 325 325 325 322 322 323 321 320 322 321 322 322 320 321 321 318 318 319 325 328 327 327 322 318 319 317 314 318 321 320 319 319 321 321 322 327 326 323 325 327 328 328 326 325 323 321 321 322 318 313 311 310 308 309 308 306 305 304 303 303 302 301
318 318 319 319 318 318 318 317 316 317 319 318 317 318 320 320 320 319 319 319 320 321 321 322 323 323 324 325 325 322 321 323 321 320 323 322 322 323 320 321 323 320 318 319 323 326 325 328 325 317 316 316 315 318 322 321 318 316 317 319 321 323 325 325 324 325 328 328 327 327 326 324 322 321 322 318 312 309 308 308 308 306 305 304 304 303 302 301
317 319 321 319 318 319 318 316 316 318 320 318 316 317 319 319 319 318 318 318 321 322 321 322 323 323 324 324 325 323 321 323 321 320 322 322 322 323 320 320 322 322 320 319 322 324 323 325 326 318 315 317 317 318 320 320 319 317 317 320 320 320 322 324 323 322 325 326 327 326 326 326 322 318 320 318 312 310 308 307 307 307 305 305 304 303 302 301
318 320 321 319 318 319 317 316 318 319 320 318 316 316 318 320 320 319 318 318 320 321 321 322 323 323 323 323 323 324 322 322 322 321 321 322 322 324 322 321 322 322 321 322 322 323 324 324 325 321 316 317 318 317 318 319 320 319 318 318 320 320 321 324 324 323 322 323 326 326 325 326 321 317 318 318 315 311 309 308 308 307 306 305 305 303 302 301
318 320 321 319 319 318 317 318 319 319 320 319 316 316 318 320 320 319 319 319 320 321 321 322 322 323 323 322 323 325 323 322 322 322 322 322 321 323 323 321 322 321 321 323 321 322 326 325 323 322 319 317 317 317 318 319 319 319 318 318 319 319 320 323 325 325 323 323 324 325 325 324 318 315 316 317 317 314 310 309 309 307 306 305 305 304 302 301
318 320 320 319 318 318 318 320 320 318 320 318 316 316 317 318 319 320 320 321 320 320 321 322 322 321 323 323 323 324 324 323 323 323 323 323 322 324 325 323 322 321 320 321 321 321 324 324 323 324 322 318 317 316 317 316 315 318 319 319 320 320 319 321 323 324 324 323 323 323 324 322 317 313 312 311 314 316 313 310 309 307 306 305 305 304 303 302
318 319 319 319 318 318 319 321 320 319 319 317 316 316 316 317 318 320 321 321 321 320 320 321 321 321 322 324 324 324 324 324 324 323 323 323 323 323 326 327 323 320 321 323 322 320 322 324 324 325 325 324 321 318 318 317 316 317 318 318 319 318 319 320 320 320 322 323 323 322 323 323 317 312 310 309 311 313 312 311 310 309 307 306 305 305 303 302
317 318 317 317 316 318 320 322 321 319 318 317 316 317 317 317 317 318 320 321 321 320 320 321 321 320 322 324 323 323 324 323 324 324 323 323 323 320 321 324 323 320 324 326 322 319 322 324 323 324 326 327 326 324 323 319 316 316 317 317 317 318 320 320 320 320 321 322 323 322 323 323 317 312 311 311 311 311 310 310 311 311 308 306 306 305 304 302
317 317 317 316 315 317 319 320 321 321 318 317 317 317 317 317 317 317 318 320 320 320 320 323 324 321 322 324 322 322 323 321 323 325 324 324 324 318 314 316 319 321 322 322 321 321 324 324 322 324 325 325 326 327 325 321 318 318 317 317 317 318 319 319 320 320 321 323 324 321 321 323 320 315 314 313 312 311 309 309 311 312 309 307 306 306 304 302
317 318 318 317 317 317 317 317 319 319 318 317 317 317 317 317 317 317 318 318 319 319 320 323 323 322 322 322 322 322 322 321 322 322 322 322 322 315 311 313 316 317 316 316 319 322 323 322 322 323 323 323 324 325 323 321 320 318 318 317 316 317 318 320 320 320 321 324 323 321 322 323 322 318 316 314 312 311 309 308 309 310 309 307 307 306 305 304
316 317 317 318 318 318 318 318 317 317 318 317 317 317 317 317 317 318 318 317 318 319 321 322 322 322 321 321 322 322 322 322 322 321 321 322 321 317 314 314 314 314 315 314 315 320 322 321 321 321 321 321 321 322 321 322 321 319 318 317 316 316 317 319 319 319 320 322 321 323 326 323 320 319 317 315 312 311 311 308 306 307 308 308 307 306 306 304
313 314 314 315 316 317 317 317 317 317 317 317 317 317 317 317 317 317 317 317 318 318 320 321 321 321 321 321 321 322 321 322 322 321 320 321 320 319 318 318 314 312 314 315 315 318 320 319 319 319 320 320 320 320 320 321 321 321 320 319 316 316 316 317 318 318 318 319 319 323 326 323 320 318 315 315 314 313 312 309 307 307 307 307 307 306 305 304
310 310 311 312 314 315 315 316 316 316 315 316 316 316 316 317 317 316 317 318 317 317 318 320 319 319 320 320 321 322 321 321 321 321 320 320 319 318 318 320 318 312 312 314 314 315 317 319 318 317 318 319 318 318 319 319 319 320 320 320 318 317 316 316 316 316 318 318 317 319 322 323 321 317 316 317 316 313 312 310 307 306 305 305 305 304 304 303
305 304 306 310 313 314 314 314 315 316 314 314 315 315 315 316 316 316 316 316 317 317 317 318 318 318 318 319 321 321 320 320 321 321 321 320 319 318 317 319 319 315 311 312 314 314 315 316 316 316 318 320 318 318 318 317 317 318 318 319 319 319 317 316 316 316 316 317 318 318 319 320 320 318 317 316 314 313 312 309 306 304 303 303 304 303 303 303
303 302 304 308 310 312 314 314 315 315 315 313 313 313 314 314 314 315 316 316 316 316 316 317 318 317 317 318 319 320 320 320 320 319 319 318 318 318 317 317 317 316 312 311 312 313 313 314 316 316 319 319 317 318 317 316 318 319 319 319 318 318 318 317 316 316 316 316 317 317 317 319 319 317 316 314 314 314 312 309 307 306 304 303 303 303 303 302
Wind_Speed
0 1 2 2 2 1 1 1 1 1 1 2 2 1 1 2 2 2 2 2 2 2 3 4 4 6 7 8 9 10 11 10 8 5 2 1 2 3 4 4 4 5 5 6 6 5 6 3 0 3 4 2 1 0 1 1 1 1 1 1 3 0 2 2 3 3 4 6 4 4 1 1 4 3 2 1 2 3 7 9 6 9 9 9 8 7 8 9
1 0 1 1 1 1 2 2 1 1 1 2 2 2 2 2 2 2 2 2 2 3 3 4 4 5 7 8 9 11 12 11 7 3 3 1 3 5 5 6 6 6 6 7 8 7 6 3 4 5 3 1 0 0 1 0 1 0 2 1 2 3 2 3 6 4 2 5 5 4 3 3 2 2 1 1 3 5 5 7 7 8 8 9 10 9 10 11
1 1 1 1 1 2 3 2 1 1 1 1 2 2 2 2 2 2 1 2 2 3 3 4 4 5 6 8 9 11 12 9 3 2 3 3 6 6 6 7 6 6 6 7 7 7 6 5 5 5 3 1 1 0 1 1 1 0 1 2 2 3 4 5 6 6 6 5 4 5 3 1 2 3 0 1 2 1 4 4 5 7 5 6 7 9 10 11
0 1 1 2 2 2 3 3 2 2 2 1 2 2 2 2 1 1 1 1 2 3 3 4 4 5 6 7 9 10 9 4 0 2 4 8 8 6 7 6 6 5 7 6 5 5 5 5 5 4 3 1 2 1 1 2 2 1 1 1 2 1 3 5 6 6 6 5 3 4 1 2 3 3 1 1 2 2 4 3 4 6 5 5 5 7 10 10
2 1 1 2 2 2 2 3 3 4 3 2 2 2 2 2 1 1 1 2 2 3 3 4 4 5 6 7 8 9 6 1 1 3 7 9 7 7 6 5 5 5 7 4 4 5 6 5 3 3 2 1 3 1 1 3 1 1 2 4 4 3 2 5 6 5 3 3 2 1 1 1 2 1 2 1 1 2 3 3 5 5 5 5 5 7 8 9
3 2 2 2 2 2 2 2 3 4 4 4 3 3 3 3 2 1 2 2 2 3 3 3 4 5 5 6 7 7 4 0 4 7 8 8 7 6 5 4 4 5 6 3 5 4 4 3 2 2 2 1 2 2 1 2 1 1 1 4 4 3 2 3 4 3 2 1 1 1 1 2 2 4 1 3 2 3 4 4 5 5 5 6 6 7 7 7
4 3 3 3 2 3 3 3 3 4 4 4 4 4 4 4 3 2 2 2 2 2 2 3 4 5 5 5 6 4 1 1 4 8 7 6 6 5 4 3 3 5 5 4 5 3 3 3 3 2 2 2 2 3 2 1 1 2 1 4 4 4 2 2 3 2 1 2 1 2 2 2 3 3 0 5 6 6 6 5 7 7 7 7 7 6 6 7
5 5 4 4 3 3 3 4 4 5 5 5 5 5 5 5 4 3 2 2 2 2 2 3 3 4 4 4 4 2 2 1 4 8 7 5 4 3 2 2 2 5 4 4 5 5 3 4 3 3 3 2 2 1 2 2 3 1 2 3 2 2 1 3 4 3 3 3 2 1 1 5 5 1 1 6 8 6 6 6 7 7 6 6 6 5 6 7
7 6 5 5 4 4 3 4 5 5 6 6 6 6 5 5 5 4 3 3 2 2 2 2 3 3 3 3 3 2 1 4 6 7 6 5 4 3 2 1 2 3 2 2 4 5 2 3 3 3 3 2 3 2 2 1 1 2 3 2 0 2 3 5 5 5 6 4 3 3 5 8 3 3 2 6 9 7 7 6 5 5 5 5 4 5 6 6
9 8 7 6 5 5 4 5 5 6 6 6 6 6 6 5 5 4 3 3 2 2 2 2 2 1 2 2 2 2 2 5 6 5 5 5 4 3 2 2 1 1 2 1 2 4 2 3 4 3 3 1 1 2 2 1 1 2 3 4 4 5 4 5 5 6 6 5 5 5 6 5 3 3 1 5 8 8 7 6 5 5 5 5 4 4 5 7
10 9 8 7 7 5 4 5 6 6 6 8 7 6 6 5 5 4 3 3 2 2 2 2 2 1 2 2 2 2 3 5 5 4 5 5 5 5 4 4 2 1 3 2 1 3 4 5 4 2 2 2 1 1 1 1 1 1 3 5 7 7 6 6 7 6 5 3 6 6 5 1 4 1 3 8 8 8 8 7 6 5 5 5 5 4 5 7
11 10 9 8 8 7 5 5 6 6 8 11 9 6 6 5 4 3 3 3 2 2 1 2 2 1 2 3 3 3 5 6 5 5 5 6 6 6 5 4 4 2 2 3 1 1 2 4 4 4 1 2 2 2 1 1 1 2 1 5 6 6 7 9 9 5 4 2 4 5 3 4 5 3 5 9 8 8 7 7 6 5 5 5 5 4 5 6
11 12 11 9 9 7 4 4 6 8 10 13 11 7 5 4 3 3 2 2 2 2 1 2 2 0 1 2 3 6 7 6 5 5 6 5 5 5 4 4 4 4 0 3 3 3 2 1 3 4 2 2 2 1 0 1 1 2 3 3 4 5 5 8 7 5 5 3 4 5 1 6 6 5 7 8 8 8 7 6 6 5 5 5 4 5 4 5
12 13 11 9 9 6 3 3 7 10 11 12 12 8 6 4 3 2 1 1 1 2 1 2 2 2 0 1 2 6 7 5 5 5 6 6 5 4 3 3 3 2 2 1 2 2 2 1 3 3 1 1 1 1 2 2 2 2 3 2 2 3 2 3 6 7 5 1 4 5 2 4 4 7 7 7 7 8 7 7 6 5 5 4 5 5 5 5
14 13 12 10 9 8 5 4 7 9 10 12 11 8 5 3 1 1 0 1 1 2 1 1 4 2 1 3 1 2 5 5 5 7 8 8 6 4 5 5 4 3 3 2 2 3 3 1 2 1 1 1 1 1 3 3 3 3 2 2 2 3 3 2 5 8 5 1 4 5 2 2 4 6 7 6 7 7 7 7 6 6 6 5 5 5 5 6
14 13 12 11 10 8 7 5 6 7 10 11 9 5 3 1 1 1 1 1 1 3 2 1 5 4 3 2 2 2 4 4 7 9 9 10 6 5 9 7 5 4 3 3 3 4 2 1 1 1 1 1 2 3 2 3 3 3 4 3 3 4 4 3 4 5 4 4 5 6 3 1 3 6 7 6 8 7 6 7 7 6 6 6 5 5 5 5
14 13 12 12 11 8 8 6 5 6 9 9 6 3 1 2 3 2 2 2 4 4 2 2 2 4 2 1 2 2 5 7 10 10 10 11 7 7 10 7 6 6 5 5 3 3 2 2 1 0 2 2 3 3 2 3 4 3 4 4 5 6 4 2 2 3 5 5 5 7 6 4 3 8 8 8 9 8 7 7 8 6 6 5 5 5 5 5
15 13 12 13 11 8 9 5 5 5 6 5 3 2 3 3 3 4 3 4 5 4 1 3 2 3 3 4 3 2 7 10 11 9 10 11 8 8 8 5 6 7 6 4 2 3 2 1 2 1 2 3 4 4 3 4 5 4 3 3 4 5 5 4 2 3 6 5 5 6 8 8 5 8 7 8 9 9 8 7 7 7 6 6 5 5 5 5
16 14 13 13 11 9 10 6 5 3 4 3 4 5 4 3 1 2 3 4 4 2 1 3 5 2 1 5 4 6 9 12 10 7 9 11 8 7 6 5 6 5 4 3 3 5 3 1 2 1 3 5 6 6 7 7 6 6 3 1 3 3 4 3 2 4 5 4 6 6 7 8 5 8 8 8 8 8 7 6 7 6 6 6 5 5 5 5
18 16 15 14 11 10 11 7 7 2 2 1 3 2 0 1 1 2 4 6 6 6 4 4 10 4 1 5 7 9 9 8 5 4 9 11 10 8 5 4 4 3 3 3 4 3 3 3 4 4 7 8 8 9 10 9 8 7 3 3 5 4 5 3 3 3 2 2 6 6 6 8 6 7 10 9 7 7 8 7 7 6 6 6 6 6 6 5
19 17 16 14 11 11 12 9 8 4 1 1 1 3 1 0 2 1 3 7 12 15 11 6 11 8 2 6 10 11 6 2 1 5 11 12 11 9 5 5 4 3 5 5 3 2 1 5 7 8 9 8 8 9 10 9 9 7 3 4 5 3 6 4 2 3 2 2 4 5 7 9 9 7 8 9 8 9 10 9 9 8 7 6 6 7 6 6
19 18 16 14 12 11 11 10 9 6 2 2 4 5 2 2 0 2 1 3 9 16 15 12 13 9 4 8 12 10 2 2 3 5 10 11 9 7 5 6 5 4 6 6 3 2 2 7 9 10 9 8 9 7 6 7 7 6 3 2 4 4 5 2 3 2 2 2 3 5 7 8 9 7 6 11 11 10 9 9 9 9 9 7 7 7 6 7
19 18 17 15 12 11 12 12 10 7 6 5 6 5 2 0 4 4 1 2 4 11 12 11 12 10 7 7 11 9 4 6 6 7 13 12 7 5 5 7 7 6 7 8 6 4 5 6 10 12 9 8 8 4 3 3 3 4 3 2 4 4 4 2 0 1 2 2 4 5 7 7 8 9 7 10 8 3 2 3 3 5 7 8 7 7 7 8
19 18 17 15 14 13 14 13 10 9 10 9 9 7 2 2 3 3 1 3 5 7 11 15 13 10 11 8 13 13 6 7 6 8 17 14 6 4 5 7 8 7 6 9 10 9 8 4 5 10 10 9 7 5 4 3 3 4 6 5 5 4 5 5 2 2 3 4 4 4 7 7 8 12 9 4 4 3 3 4 3 2 4 6 6 7 7 7
20 19 17 16 14 15 16 11 10 12 12 10 12 10 7 4 1 2 0 2 5 3 5 13 9 8 11 10 15 12 4 8 8 9 19 18 9 5 4 5 5 6 8 10 10 10 10 5 3 6 8 7 6 5 6 6 4 5 6 8 9 7 6 5 1 1 2 3 3 2 3 5 4 9 8 4 3 3 4 5 5 4 4 5 6 6 6 7
22 19 18 17 15 18 15 8 10 14 12 11 12 10 10 8 0 1 0 2 6 2 2 6 6 9 12 10 12 8 1 7 6 14 23 20 12 5 3 5 3 5 7 7 6 5 4 3 4 6 6 6 6 6 6 7 4 4 4 4 8 8 5 5 4 2 1 3 2 3 3 5 4 6 5 6 6 7 6 6 8 7 6 6 6 6 6 6
25 21 20 17 17 23 14 5 13 16 9 10 12 11 12 12 5 2 0 2 6 3 5 3 3 7 9 12 14 7 2 3 6 12 16 15 11 2 3 7 4 4 3 1 4 2 4 5 4 6 6 6 6 5 6 8 5 4 3 2 2 3 3 2 3 3 3 3 2 4 3 5 8 7 6 8 7 7 8 8 8 8 8 8 7 7 7 6
27 24 22 19 22 28 16 8 17 17 9 7 10 12 12 12 7 2 2 2 3 4 4 2 1 2 5 13 16 8 3 6 6 3 2 5 6 1 4 10 7 7 5 4 6 1 4 7 7 9 7 6 6 4 6 10 5 3 1 3 5 3 1 1 2 4 3 4 3 4 4 4 8 4 6 7 7 7 10 12 11 10 10 9 9 9 9 8
31 28 26 22 24 28 19 11 14 15 14 8 9 15 14 10 6 2 2 4 1 2 3 2 2 3 7 11 13 8 4 4 2 1 1 2 2 2 4 7 5 8 8 10 9 2 1 4 4 8 7 6 4 1 1 7 6 3 3 5 5 3 2 1 2 2 2 5 5 5 6 4 8 2 6 4 4 8 10 10 11 10 10 10 9 9 10 9
34 31 30 27 26 29 24 16 12 14 16 10 11 18 15 8 3 2 3 3 1 1 2 1 2 6 12 11 9 7 5 2 2 2 2 1 1 3 2 2 2 4 4 8 9 2 3 1 0 2 2 3 5 5 5 2 6 6 5 5 4 2 2 1 2 2 1 7 6 8 9 6 6 3 7 5 5 8 8 6 8 10 10 10 9 10 10 9
37 34 34 34 32 32 24 15 16 18 15 14 18 21 12 4 1 4 5 1 2 1 3 2 4 9 14 13 8 6 4 3 4 6 4 3 1 1 1 1 0 1 2 5 5 2 3 2 1 0 1 3 6 4 5 4 4 6 4 4 3 1 3 2 1 2 2 7 5 10 12 10 8 4 4 3 2 3 6 8 11 12 12 11 9 10 10 9
41 38 38 39 36 34 24 17 22 22 17 22 24 14 6 2 2 5 4 2 0 4 6 6 7 10 13 12 9 9 8 5 6 8 7 6 6 6 8 7 6 4 4 6 4 1 2 4 4 1 2 2 5 4 4 5 1 3 5 5 4 1 1 0 2 3 5 7 3 5 8 9 10 6 4 4 0 3 0 7 13 14 13 12 11 10 10 9
42 41 40 40 38 36 27 21 27 26 22 27 20 5 2 4 6 9 8 5 2 1 4 7 9 10 12 11 7 9 8 5 8 9 6 7 7 8 10 9 8 6 4 6 6 2 2 4 7 4 2 4 7 6 3 1 3 6 6 6 5 4 3 3 4 3 5 5 3 1 2 3 4 5 7 6 2 4 5 3 11 14 14 13 11 10 9 9
41 41 41 42 42 40 31 24 29 30 27 23 12 3 4 5 6 10 12 9 3 1 3 6 9 11 12 10 8 10 7 4 9 9 6 7 6 7 8 10 13 9 1 4 5 6 5 4 8 10 4 8 13 11 8 5 5 8 6 6 6 5 4 4 4 4 3 1 3 1 2 3 2 2 3 1 4 4 6 3 9 10 10 10 10 10 10 10
40 42 42 40 41 44 38 30 33 35 28 15 6 6 8 7 6 8 9 9 5 2 3 6 9 9 9 7 6 10 5 3 9 8 6 8 7 8 9 10 15 11 4 5 3 6 8 6 6 9 4 12 15 10 7 8 3 5 4 5 6 4 3 2 1 3 2 1 2 2 3 4 3 0 1 3 4 3 5 4 10 9 9 10 9 10 10 10
37 40 38 37 40 45 42 34 39 42 26 11 7 7 8 8 4 4 5 7 7 5 6 5 6 6 7 4 3 6 1 2 9 7 5 8 7 9 9 7 12 13 9 8 2 4 6 3 2 4 2 8 9 6 7 6 3 3 4 6 4 2 3 3 2 2 3 4 4 4 4 4 1 1 2 4 3 2 1 3 9 9 11 11 10 10 10 10
30 30 25 29 36 39 40 36 40 38 20 9 10 8 7 7 3 2 4 6 8 8 6 5 5 6 7 4 4 7 3 3 8 7 4 5 6 10 12 7 11 16 14 10 3 1 5 1 2 1 2 2 2 1 3 1 2 4 5 5 3 4 1 1 2 2 1 6 4 5 6 4 3 4 2 5 4 4 6 6 8 8 11 11 10 10 10 10
19 15 13 25 34 34 38 41 39 26 9 7 11 8 6 7 5 4 3 4 8 9 7 7 6 7 7 6 6 9 8 4 7 7 4 5 4 8 13 9 9 17 17 11 4 2 2 2 3 1 1 1 3 1 1 3 3 4 3 3 3 1 2 3 2 3 4 5 5 4 6 6 7 6 4 7 10 9 8 8 9 11 12 11 10 11 11 10
9 4 5 21 34 34 40 45 34 15 5 8 10 7 7 8 7 6 4 4 7 9 9 8 6 6 8 8 6 9 11 8 9 8 5 6 4 7 14 10 8 14 16 13 7 2 1 3 3 3 3 2 1 1 4 2 0 2 1 3 1 2 3 4 3 2 3 4 5 3 4 5 7 8 10 13 14 13 13 11 11 13 14 12 11 12 12 12
5 2 3 14 30 37 42 38 19 5 5 9 8 7 7 7 8 10 9 6 3 4 6 8 7 6 7 8 6 7 9 9 9 8 6 7 5 5 11 11 8 11 14 13 9 2 2 2 3 3 3 2 2 4 9 10 8 5 2 3 4 2 1 1 2 2 3 3 4 5 6 5 4 5 11 15 14 14 16 15 14 13 14 13 12 13 13 12
4 4 2 13 31 40 36 20 6 5 6 7 9 10 7 4 6 11 12 9 5 0 1 4 6 6 6 8 7 6 7 7 8 7 6 7 6 4 7 11 10 10 10 9 9 5 3 3 4 1 2 4 4 4 8 8 8 8 7 8 9 6 3 1 4 4 4 4 3 4 8 6 2 1 4 9 11 14 16 16 14 12 13 13 13 13 14 13
4 5 3 18 37 38 23 7 4 6 5 6 10 8 4 3 4 9 11 10 8 4 1 1 4 5 5 8 8 4 6 6 8 8 7 9 10 6 7 12 11 11 10 7 7 6 4 2 3 3 3 5 3 2 3 3 2 2 4 5 6 6 6 6 6 5 5 4 1 1 6 6 1 3 4 2 4 9 12 13 11 11 13 13 12 13 13 12
5 5 4 22 42 34 12 6 7 6 5 6 7 6 3 3 5 8 9 11 9 7 5 3 3 5 5 5 6 5 6 5 8 10 8 9 9 4 5 12 12 11 9 4 3 3 3 2 3 2 1 1 1 1 1 3 2 1 3 3 6 8 9 7 4 2 4 5 3 2 6 6 2 4 5 4 3 5 7 9 10 9 9 11 11 12 12 11
5 4 0 19 41 31 8 5 7 6 7 6 6 7 5 3 6 9 11 12 10 7 8 7 5 5 4 2 1 2 4 5 8 10 8 8 6 3 3 5 11 11 7 3 4 5 3 3 4 1 2 2 2 2 1 1 1 2 4 5 8 9 7 3 1 1 4 9 8 6 8 6 2 2 2 3 5 7 5 6 9 9 8 9 9 10 11 11
3 3 2 9 24 20 7 6 9 8 9 9 8 10 9 5 7 11 11 10 9 7 8 7 6 6 3 2 1 3 4 5 5 6 6 5 2 3 6 4 2 7 3 1 4 7 5 4 6 6 8 9 7 5 4 3 3 3 5 7 10 11 11 8 3 4 9 8 8 8 9 4 2 1 2 2 4 6 4 5 7 8 8 9 9 9 10 11
4 3 2 3 6 7 4 5 8 8 9 10 7 9 13 9 6 8 10 9 8 9 7 3 3 6 5 4 6 9 10 7 1 1 4 3 1 3 4 6 4 2 3 5 4 4 3 3 8 12 13 14 11 5 3 7 7 7 9 12 14 15 14 10 5 9 9 4 6 13 11 5 4 4 5 4 5 5 4 5 5 7 8 9 9 8 8 9
4 4 5 3 2 5 4 3 6 7 9 12 7 6 13 14 7 6 9 9 9 10 9 4 4 8 10 11 12 12 12 9 3 3 6 3 1 2 2 3 4 4 4 4 3 2 4 4 12 16 17 19 14 6 4 9 10 13 14 15 17 16 15 12 12 15 8 4 10 13 10 9 10 8 8 7 7 7 7 8 7 7 8 8 8 9 9 9
3 3 5 3 1 4 7 7 7 8 10 12 9 7 12 15 12 8 9 10 9 9 7 5 9 15 15 15 12 10 11 10 8 11 10 4 3 1 2 2 1 2 4 2 3 3 5 7 11 12 15 19 15 7 3 5 6 9 12 16 18 17 18 19 21 20 10 9 16 9 11 15 12 9 10 10 10 10 10 10 8 7 8 8 9 10 11 11
1 1 1 2 2 3 6 6 5 7 10 10 9 9 11 15 17 13 8 7 7 10 10 10 14 18 17 14 11 9 10 11 12 14 10 6 5 4 2 2 1 1 3 2 1 1 3 6 7 6 10 16 15 11 8 5 5 6 9 13 15 18 22 23 24 23 16 17 19 8 7 12 8 9 12 9 8 8 7 8 9 9 9 9 10 11 11 11
1 1 1 1 2 2 3 3 4 4 6 6 7 9 10 14 17 14 9 8 8 10 13 16 19 16 15 14 12 12 14 14 14 12 8 7 6 5 5 4 2 1 1 4 2 1 3 4 3 4 5 13 14 12 9 6 6 9 9 10 14 18 21 20 20 20 16 18 20 12 8 9 4 7 8 6 7 7 8 8 9 9 10 10 10 10 11 11
2 1 1 1 2 4 4 3 5 5 4 4 5 5 8 12 14 11 8 9 10 9 11 19 21 13 9 11 13 16 18 15 12 8 7 9 8 6 6 5 6 5 3 4 3 2 4 2 1 4 4 12 13 10 11 8 4 8 13 17 19 17 14 16 17 16 15 17 18 14 11 9 4 5 5 5 7 9 9 9 8 8 9 11 11 11 11 11
3 1 1 0 2 4 5 4 6 6 4 6 7 7 7 10 10 7 4 3 7 8 8 14 17 9 6 12 17 18 16 9 5 3 4 4 2 3 4 4 6 7 7 6 3 2 5 3 2 4 5 10 8 7 9 7 3 8 15 19 20 16 12 13 16 16 17 16 13 11 10 7 4 6 5 3 4 6 7 7 7 7 9 10 10 11 11 12
Wind_Direction
122 152 122 65 20 360 330 269 225 187 214 240 241 239 210 207 219 238 260 272 280 291 302 318 325 327 330 329 332 332 330 338 337 332 354 5 55 110 109 80 71 63 52 26 1 330 293 242 147 324 275 227 344 339 270 306 31 348 290 228 273 118 86 320 51 90 144 131 126 131 3 360 134 127 104 86 236 197 99 90 91 78 82 86 77 57 47 46
326 239 138 93 35 347 308 265 230 219 234 241 248 254 234 230 243 246 259 270 280 295 309 321 321 324 326 328 335 331 333 339 329 356 45 10 148 124 102 89 76 64 49 18 355 340 325 353 13 320 283 213 138 354 238 319 66 287 304 306 333 48 44 356 54 53 53 108 117 110 40 355 99 104 154 222 209 189 113 109 120 98 94 87 67 52 52 51
335 348 45 54 20 329 315 306 298 270 249 247 251 247 234 232 240 245 260 285 307 310 314 314 313 321 325 333 336 333 338 336 316 65 68 120 139 122 104 93 73 64 49 18 352 345 335 335 335 314 304 286 90 17 227 24 350 118 360 358 45 77 70 33 60 57 22 54 103 106 67 340 92 76 128 315 314 193 103 106 125 106 91 80 65 52 51 53
268 346 360 12 360 345 344 343 342 327 304 276 272 263 251 245 244 264 282 308 316 305 310 308 315 326 330 337 333 335 341 332 10 92 121 131 132 122 116 97 73 63 47 16 337 346 327 304 310 310 304 286 126 228 240 78 351 353 26 64 61 28 80 63 60 61 36 24 34 74 39 282 100 77 240 290 333 92 91 51 73 95 87 78 75 58 54 55
207 247 308 321 334 343 350 349 347 336 319 306 313 304 294 290 287 301 281 289 300 295 307 312 324 330 333 338 328 335 342 293 139 148 146 142 139 130 131 108 83 58 50 16 334 343 313 292 296 295 270 218 146 183 13 67 18 337 41 82 63 351 60 93 73 55 36 32 24 56 310 321 74 266 227 228 291 131 103 74 77 85 86 81 78 70 62 57
236 229 281 304 315 317 318 336 340 331 322 319 325 319 306 296 287 276 264 266 274 287 307 318 331 331 336 335 322 330 332 45 155 168 155 152 148 134 137 119 85 50 47 350 326 321 301 294 267 275 270 260 102 93 48 52 58 349 49 81 54 4 58 102 90 60 2 16 274 256 339 3 349 286 238 82 75 117 100 94 97 89 95 94 85 77 69 61
259 247 266 286 302 314 322 324 317 316 321 317 313 310 301 297 295 282 265 263 261 280 307 322 328 331 338 330 321 315 267 65 140 168 163 161 155 144 139 117 79 48 31 328 322 316 324 301 272 322 309 289 36 68 59 322 239 249 229 106 56 360 32 95 108 113 326 279 259 50 15 294 268 280 258 100 103 116 109 102 105 104 104 98 87 81 78 73
257 260 267 273 279 298 317 321 317 312 311 303 294 292 291 291 298 299 282 275 266 277 302 320 329 339 347 336 330 296 225 98 135 165 170 167 161 161 133 86 51 44 13 336 336 339 356 303 307 11 322 345 10 22 70 307 250 264 355 96 79 331 169 129 135 160 200 242 259 69 326 260 239 229 136 129 126 123 123 119 117 117 109 95 86 85 85 78
250 260 270 275 281 286 299 319 328 321 313 302 289 285 287 283 288 293 294 290 277 286 304 319 321 336 349 335 320 302 194 128 139 160 176 186 191 192 151 82 42 32 339 350 334 316 347 330 1 23 336 6 358 352 77 38 314 7 8 16 73 228 202 165 175 196 196 214 216 199 240 249 223 97 90 130 130 130 132 133 134 131 115 101 92 84 82 81
255 254 258 268 276 286 307 321 328 328 321 312 298 289 282 276 280 284 292 292 285 296 300 309 311 313 342 319 273 264 142 135 137 148 175 194 195 181 155 139 99 313 302 21 330 308 350 8 4 19 4 333 321 25 61 62 288 329 357 325 286 259 239 180 207 222 192 193 185 196 249 241 120 106 206 135 132 141 139 141 149 137 120 114 104 87 77 77
280 267 257 260 265 273 295 313 321 327 327 321 306 292 285 275 273 280 288 286 284 297 298 307 297 285 324 304 256 232 163 150 144 148 167 176 166 156 164 166 151 279 308 298 274 339 3 9 343 336 37 344 310 122 78 28 258 331 1 299 270 247 240 203 223 228 180 182 181 195 255 207 103 192 192 138 143 156 145 146 154 140 124 119 111 98 79 74
293 286 270 258 259 262 271 298 312 312 320 320 305 289 285 279 275 278 282 280 275 281 284 288 261 276 320 282 248 213 173 160 154 160 166 166 166 169 179 181 169 157 342 325 132 101 335 360 333 296 15 356 312 158 119 4 282 329 317 281 282 254 237 214 209 201 171 177 170 170 261 233 194 191 131 133 153 162 149 146 150 141 130 127 117 106 84 78
281 286 279 259 255 252 250 290 300 298 312 318 311 296 278 277 282 277 278 274 261 263 257 258 243 125 337 282 208 189 180 168 164 169 172 167 164 173 184 186 184 174 142 355 69 131 224 15 331 305 15 352 306 157 225 216 220 291 242 231 290 291 253 204 176 150 151 163 168 149 270 248 198 148 124 138 159 161 154 151 152 145 136 137 128 118 100 89
268 278 281 266 255 238 213 259 275 287 306 318 317 300 274 273 281 282 283 243 218 251 238 221 211 132 45 272 171 185 187 175 170 171 170 157 138 138 150 160 160 165 164 86 86 141 170 106 319 307 52 357 322 124 261 221 180 271 276 203 216 279 277 172 139 148 158 188 184 158 251 267 147 133 146 154 165 166 162 157 156 151 145 144 137 134 122 106
261 270 279 280 263 228 201 221 254 283 309 320 316 299 279 269 280 345 268 220 211 225 190 185 198 168 299 249 166 171 189 182 173 177 170 152 147 141 132 133 127 127 143 141 157 154 137 140 298 289 112 109 176 209 266 245 197 200 251 265 219 198 222 169 150 172 171 242 204 173 234 249 146 152 159 160 172 178 172 159 157 158 153 152 151 146 132 121
257 261 270 282 271 227 200 216 251 290 313 317 310 295 272 203 109 104 133 115 121 162 139 120 192 198 307 243 155 149 187 185 173 180 174 158 164 150 133 129 120 120 127 125 142 145 150 234 284 327 181 185 203 211 264 273 247 196 190 252 251 206 211 171 177 203 156 134 195 203 244 270 148 161 160 169 182 188 187 162 159 166 158 156 155 146 136 134
253 259 263 276 277 229 202 223 246 281 309 321 317 301 251 127 120 116 105 122 123 133 146 355 200 198 270 183 182 207 172 167 171 178 181 167 154 137 137 138 134 129 121 120 134 154 183 213 113 336 220 211 227 197 220 259 246 221 190 219 248 235 229 194 191 222 168 166 208 211 235 262 172 160 169 184 184 188 196 174 162 165 160 155 148 148 152 145
249 256 255 271 280 225 203 226 229 267 313 345 6 46 81 95 122 111 98 137 121 95 296 305 272 219 231 196 172 120 131 148 161 168 180 173 153 150 157 151 143 144 137 134 170 179 187 184 140 267 236 203 223 191 186 215 225 251 224 210 256 251 237 231 185 177 176 195 233 207 223 246 194 164 181 191 187 193 198 179 161 162 159 155 151 155 151 137
246 251 248 264 275 215 198 211 207 254 333 35 65 68 73 68 110 147 164 173 143 129 250 197 196 206 158 169 126 82 110 137 148 155 174 171 156 165 174 155 151 164 163 152 193 186 171 146 152 234 232 208 210 204 210 222 241 279 301 282 294 298 266 256 112 167 180 191 232 224 234 251 209 174 186 192 189 198 201 172 157 164 160 158 160 154 146 135
243 247 244 255 262 211 194 201 199 218 339 104 60 20 45 126 220 193 188 209 217 241 282 175 190 219 78 129 116 104 112 128 142 157 167 164 154 158 174 172 164 195 209 171 174 176 155 179 199 209 217 219 212 212 226 240 259 278 313 299 284 290 278 276 118 172 189 185 229 238 252 263 252 200 188 185 183 200 205 175 167 172 163 166 161 150 147 132
239 242 241 247 253 218 197 197 194 192 247 218 295 267 251 130 213 146 168 221 228 240 267 240 211 229 157 130 143 141 127 128 177 155 160 163 161 158 170 182 166 196 226 198 153 63 136 207 220 218 220 231 233 228 227 230 249 262 264 282 279 265 266 270 137 162 80 53 252 267 272 267 267 239 180 166 179 204 205 185 179 178 167 167 158 152 142 119
235 237 237 238 243 223 197 191 192 193 202 240 263 255 319 7 83 58 86 242 229 225 242 250 243 244 164 147 167 171 175 177 157 154 165 171 178 177 171 179 187 197 205 197 144 82 233 230 228 227 230 239 245 254 250 232 234 246 245 271 271 263 273 300 101 136 85 67 264 278 279 268 268 261 186 173 190 203 202 188 181 174 167 167 159 155 144 132
231 232 233 231 233 216 189 182 191 201 207 217 237 244 284 136 91 58 189 280 262 218 218 229 237 235 197 166 172 184 209 186 174 180 177 175 183 197 180 176 203 212 194 195 188 184 216 230 225 223 233 243 238 229 256 272 253 236 226 232 250 253 264 275 100 207 184 208 266 294 291 272 267 268 225 186 184 163 135 133 135 153 159 163 161 154 150 151
226 226 228 227 224 201 175 177 195 211 212 219 234 236 241 179 96 54 193 268 265 220 209 207 212 220 206 175 172 186 212 205 198 178 177 178 164 184 198 186 203 218 207 201 201 218 230 233 211 206 216 230 229 200 197 229 247 231 216 215 238 238 235 238 196 167 203 234 243 281 294 270 243 244 231 166 98 81 104 105 88 88 125 127 133 147 155 158
219 219 219 221 219 184 167 185 210 211 206 219 238 229 219 222 4 13 277 276 249 239 218 203 200 213 197 163 165 176 204 222 218 168 172 181 166 154 198 195 203 216 214 206 206 234 241 229 169 187 201 202 208 219 193 185 228 244 218 211 222 235 250 262 282 70 330 282 220 171 275 272 241 234 218 146 125 172 160 168 177 170 138 124 133 152 156 152
215 213 210 214 208 176 171 209 207 196 202 221 234 220 208 209 136 14 138 305 258 247 136 177 175 188 180 155 154 144 191 231 204 159 169 185 182 156 189 186 194 223 217 208 214 243 230 176 152 166 175 173 196 232 191 172 208 249 250 228 215 226 258 293 323 334 275 277 238 150 215 271 296 271 214 164 194 198 179 200 200 183 175 167 165 165 157 150
214 209 205 207 194 179 183 213 179 179 196 224 226 217 206 199 198 264 147 311 268 171 128 172 179 175 165 156 156 140 192 185 117 149 168 186 189 133 203 188 173 217 222 194 226 228 133 147 156 154 160 176 197 223 187 166 182 231 281 353 129 188 250 265 285 262 242 299 279 174 192 273 281 263 197 166 188 204 201 210 207 191 183 179 177 169 161 162
214 208 202 200 190 185 185 164 168 183 205 203 201 202 193 188 200 242 138 241 268 122 130 204 169 148 141 159 168 157 150 132 117 158 148 173 189 72 210 204 185 189 192 196 221 265 132 168 170 164 176 200 200 217 193 169 169 220 213 66 84 95 36 291 255 254 283 320 265 187 161 262 274 249 150 161 184 212 217 210 205 194 179 176 177 166 160 161
215 208 202 196 190 190 188 176 176 194 206 192 184 186 170 163 177 67 114 220 282 81 135 162 137 138 139 163 185 172 126 102 106 239 48 146 207 35 214 223 208 195 199 211 220 278 101 184 172 174 196 208 173 17 251 171 171 195 137 84 74 84 73 52 246 240 294 273 236 187 164 219 271 245 143 173 211 223 224 205 196 188 174 176 172 161 159 156
218 211 203 193 191 194 198 209 207 192 193 191 176 166 147 135 143 105 180 214 302 23 99 110 159 159 155 163 188 179 138 63 57 117 137 166 360 356 276 283 285 228 216 224 229 216 116 124 92 192 207 173 119 54 4 97 138 148 128 91 83 90 76 72 237 118 279 261 215 183 182 191 270 246 163 190 223 211 205 174 175 175 168 175 169 160 159 154
221 217 207 195 193 193 194 211 208 189 185 170 150 145 133 96 95 175 196 204 313 194 128 146 157 154 165 164 168 181 158 116 129 148 156 158 150 312 234 159 314 280 281 252 243 161 128 137 101 344 20 107 107 72 9 23 115 135 122 111 109 64 44 36 252 140 221 256 207 185 188 188 231 245 151 193 262 202 179 163 169 172 169 173 168 162 160 155
221 220 213 203 197 192 192 200 190 184 180 157 142 136 136 124 189 216 198 95 303 192 156 166 165 159 174 175 173 180 170 153 163 169 165 168 183 195 199 191 168 178 232 231 220 161 206 198 153 77 312 173 134 103 28 358 311 156 132 129 130 141 10 258 207 186 226 253 251 194 190 202 233 246 223 224 348 23 185 167 167 168 169 171 167 163 159 155
222 221 214 207 202 195 198 198 186 183 172 155 144 134 155 161 201 210 194 169 180 193 136 143 160 165 172 183 186 175 175 173 168 173 168 168 190 206 216 216 192 197 219 188 188 199 232 214 165 154 288 204 175 168 174 242 206 184 161 153 161 171 217 227 205 221 237 243 284 275 168 243 272 263 244 223 135 10 337 164 162 162 165 166 162 159 154 155
225 220 212 208 206 203 200 197 191 181 161 148 145 152 171 196 209 197 201 205 181 93 107 132 157 170 177 192 185 164 177 187 164 168 166 165 195 214 216 223 214 218 172 152 191 188 207 258 185 175 175 178 192 202 186 147 169 194 178 171 187 176 189 213 197 222 239 245 301 305 155 196 219 254 255 139 73 353 337 98 134 142 150 151 149 153 155 160
226 218 212 206 206 207 202 196 192 178 156 147 164 170 182 207 209 197 207 207 186 141 130 146 158 172 190 204 181 163 172 176 162 169 182 183 202 208 202 211 208 205 177 183 204 170 206 256 177 167 157 169 192 212 167 121 153 208 176 191 217 192 187 233 203 166 131 350 284 218 223 224 201 220 90 89 68 8 348 95 124 133 143 147 154 161 163 165
222 215 212 204 206 208 201 194 188 177 162 156 178 185 204 210 196 185 186 185 189 153 123 154 169 179 195 195 182 180 144 93 162 175 203 203 222 221 210 206 196 197 193 191 193 150 192 264 119 127 122 167 191 214 177 155 175 187 173 199 205 126 173 232 286 74 100 275 256 178 240 281 283 277 167 136 112 81 295 151 142 150 153 156 168 170 168 169
216 211 209 207 209 204 196 192 184 177 170 171 186 198 214 215 197 165 157 170 183 160 147 193 186 176 193 190 188 190 158 105 168 184 188 191 230 224 213 208 183 195 205 197 215 208 166 214 288 147 144 186 318 293 191 128 92 136 182 196 117 60 35 186 270 350 148 253 258 177 214 228 196 241 183 153 166 188 215 188 156 160 164 170 177 173 172 169
212 206 210 215 210 199 194 192 183 176 176 183 196 209 210 213 207 191 184 173 175 172 189 222 197 173 192 198 184 177 172 160 174 189 183 181 224 202 195 205 185 193 206 201 218 280 154 191 270 346 80 15 358 359 178 13 52 126 183 214 126 126 234 151 191 250 199 239 271 208 209 208 202 212 174 186 201 193 197 192 176 177 178 180 178 172 173 166
211 201 233 218 207 197 194 190 181 176 188 181 197 214 214 218 203 198 236 215 181 181 200 220 211 194 201 202 183 168 179 184 172 182 192 188 218 190 181 193 193 191 197 195 203 243 133 191 248 327 8 88 64 214 184 180 182 86 349 286 207 155 189 166 184 218 190 242 278 250 226 228 216 193 174 195 203 185 183 192 192 188 184 183 178 174 176 171
207 236 277 204 198 196 191 186 179 188 195 181 196 203 203 218 201 200 229 238 207 188 209 218 211 212 217 214 202 173 184 197 178 185 206 186 197 206 182 180 186 184 184 190 197 169 101 203 223 321 344 125 166 210 191 184 189 189 193 219 204 173 117 146 227 208 177 237 263 259 261 250 227 185 179 191 195 182 181 188 194 192 186 185 181 177 178 177
188 238 252 177 186 186 182 182 190 206 194 183 201 208 202 205 193 195 212 230 245 268 138 216 215 216 223 224 219 174 175 203 190 190 215 198 202 224 184 176 179 168 161 181 199 180 151 195 190 177 249 215 213 213 200 193 190 194 196 195 193 185 155 188 243 209 189 222 214 231 260 253 252 327 176 180 186 184 185 186 188 188 185 184 183 180 181 179
200 233 177 168 178 174 169 191 208 192 206 194 200 210 188 157 183 189 193 210 233 235 149 223 226 217 219 228 234 188 162 198 201 196 212 210 212 217 184 181 174 157 149 169 203 187 126 135 189 197 210 214 227 214 182 172 165 216 231 202 183 182 179 197 225 204 187 224 183 152 271 267 294 1 21 77 165 176 181 183 180 183 184 183 182 179 179 180
218 224 154 170 175 168 163 219 196 192 227 201 201 210 177 173 186 181 184 194 207 216 215 222 209 211 222 229 243 217 174 190 208 206 215 214 213 234 200 183 164 150 155 165 194 170 94 125 195 236 288 296 289 247 121 76 72 306 269 195 180 201 200 197 216 177 180 219 193 178 254 262 327 5 10 16 53 111 153 172 174 176 178 181 182 176 174 175
219 224 173 178 176 170 171 220 192 209 219 195 205 210 202 216 196 187 192 193 192 196 209 218 201 207 222 185 242 235 186 204 221 214 216 212 207 341 340 183 161 158 170 173 166 165 161 166 161 185 270 270 258 243 261 26 126 213 226 206 210 214 202 204 275 80 235 222 190 195 240 244 287 358 15 23 59 82 108 147 160 167 172 177 178 171 169 170
201 205 290 195 182 178 195 206 191 207 210 201 206 203 203 220 208 205 201 193 193 192 202 221 214 209 208 100 64 268 233 237 241 230 232 224 203 7 356 343 174 173 176 73 134 159 169 167 162 186 226 234 228 225 217 186 166 220 211 198 217 214 198 205 204 210 240 221 174 205 238 255 308 225 154 107 95 100 104 125 143 159 166 169 170 168 168 169
189 200 197 207 207 209 226 208 195 197 197 199 206 204 207 212 208 205 203 202 204 199 204 215 195 204 207 197 229 242 240 240 246 300 251 229 84 7 351 357 8 72 77 53 81 139 146 166 191 201 219 230 234 240 180 146 153 205 204 194 209 214 205 203 201 216 225 183 192 222 224 240 270 222 196 187 159 155 161 156 154 156 159 163 166 166 163 165
197 203 180 166 218 228 241 237 208 200 190 187 186 191 204 213 214 182 193 211 207 201 214 210 173 196 202 207 223 234 236 233 203 217 237 210 80 354 358 26 23 34 51 35 16 98 124 201 212 211 224 235 240 247 166 156 178 202 202 200 207 210 204 203 216 221 192 148 237 229 192 214 233 206 205 205 180 180 184 186 185 166 158 157 152 154 157 161
214 205 185 158 139 209 225 225 213 213 201 185 183 190 195 206 213 192 191 213 210 198 208 210 205 210 207 206 215 224 228 228 225 230 228 193 147 149 2 2 347 54 67 28 330 86 140 223 223 213 234 245 249 254 212 187 206 205 201 206 207 203 202 206 220 224 192 200 240 217 168 211 222 190 202 201 182 189 188 182 175 150 147 148 147 160 169 169
286 282 212 143 137 206 226 218 195 212 212 192 190 201 193 199 211 207 191 194 207 202 199 209 216 214 211 208 206 216 220 215 225 231 219 191 173 168 194 257 242 65 87 126 292 75 161 231 220 201 243 254 251 251 245 239 252 240 221 215 208 205 206 208 219 225 214 224 240 225 190 229 222 184 200 195 177 178 157 149 151 149 157 156 158 172 177 178
221 290 291 138 165 185 207 188 152 185 217 207 204 206 200 205 211 210 195 179 192 200 199 214 223 213 206 208 207 220 223 214 225 232 199 185 200 188 200 208 160 83 139 154 168 239 209 227 191 156 242 256 247 242 242 237 243 254 253 235 222 215 211 213 222 226 223 233 242 242 249 262 240 181 185 161 143 134 125 143 154 158 166 161 165 179 180 184
166 69 60 333 234 187 178 166 165 188 210 204 210 204 204 215 213 207 208 198 198 199 195 213 225 218 200 207 212 224 228 223 231 231 182 186 205 196 202 193 141 136 173 163 147 179 189 213 120 130 214 251 241 225 233 242 260 268 259 244 232 221 211 214 222 222 219 228 237 239 246 251 219 158 139 128 141 139 143 156 152 156 169 166 171 181 183 191
151 68 109 140 282 214 194 171 171 195 202 188 203 205 204 221 217 201 216 227 212 213 206 215 225 219 199 216 221 228 234 229 224 212 165 171 175 146 169 176 149 149 167 167 140 159 179 183 180 165 213 253 242 199 215 235 255 255 250 242 232 222 213 218 223 222 218 218 225 231 233 227 178 139 137 155 169 162 161 161 153 160 172 174 180 184 189 198